This demonstration page uses our WeatherBlox Daily Observations layout. Learn more.

Left ArrowRight Arrow

38.20091, -84.87328

Hourly Observations for July 15, 2015

Temp ( °F °C ) Dew Point ( °F °C ) Humidity (%) Winds ( mph kmh ) Pressure ( in mb ) Visibility ( mi km ) Precip ( " mm )
12:53 am 00:53 Clear 68 20 66 18.9 93 93 W 3 6 29.76 1008 10 16 0.00 0.00
1:53 am 01:53 Clear 68 20 65 18.3 90 90 Calm 29.76 1008 10 16 0.00 0.00
2:53 am 02:53 Clear 67 19.4 64 17.8 91 91 Calm 29.77 1008 10 16 0.00 0.00
3:53 am 03:53 Clear 67 19.4 63 17.2 87 87 Calm 29.78 1009 10 16 0.00 0.00
4:53 am 04:53 Clear 66 18.9 63 17.2 90 90 WNW 6 9 29.79 1009 10 16 0.00 0.00
5:53 am 05:53 Partly Cloudy 66 18.9 63 17.2 90 90 NW 5 7 29.81 1009 10 16 0.00 0.00
6:53 am 06:53 Cloudy 66 18.9 63 17.2 90 90 NW 5 7 29.83 1010 10 16 0.00 0.00
7:53 am 07:53 Cloudy 67 19.4 64 17.8 91 91 NNW 5 7 29.85 1011 10 16 0.00 0.00
8:53 am 08:53 Cloudy 69 20.6 64 17.8 84 84 NNW 6 9 29.87 1012 10 16 0.00 0.00
9:02 am 09:02 Cloudy 69 20.6 64 17.8 84 84 N 5 7 29.88 1012 10 16 0.00 0.00
9:38 am 09:38 Cloudy 69 20.6 64 17.8 84 84 N 6 9 29.88 1012 10 16 0.00 0.00
9:53 am 09:53 Cloudy 70 21.1 64 17.8 82 82 N 7 11 29.90 1013 10 16 0.00 0.00
10:53 am 10:53 Cloudy 71 21.7 64 17.8 79 79 NNW 6 9 29.92 1013 10 16 0.00 0.00
11:29 am 11:29 Mostly Cloudy 73 22.8 64 17.8 74 74 N 7 11 29.91 1013 10 16 0.00 0.00
11:53 am 11:53 Mostly Cloudy 76 24.4 65 18.3 69 69 VRB 7 11 29.92 1013 10 16 0.00 0.00
12:14 pm 12:14 Cloudy 77 25 65 18.3 66 66 VRB 7 11 29.91 1013 10 16 0.00 0.00
12:25 pm 12:25 Cloudy 76 24.4 64 17.8 67 67 N 10 17 29.91 1013 10 16 0.00 0.00
12:53 pm 12:53 Cloudy 76 24.4 65 18.3 69 69 NNW 8 13 29.92 1013 10 16 0.00 0.00
1:07 pm 13:07 Cloudy 76 24.4 64 17.8 67 67 VRB 3 6 29.91 1013 10 16 0.00 0.00
1:33 pm 13:33 Cloudy 75 23.9 65 18.3 71 71 NNW 8 13 29.91 1013 10 16 0.00 0.00
1:45 pm 13:45 Cloudy 76 24.4 65 18.3 69 69 NW 7 11 29.91 1013 10 16 0.00 0.00
1:53 pm 13:53 Cloudy 75 23.9 64 17.8 69 69 NW 5 7 29.92 1013 10 16 0.00 0.00
2:53 pm 14:53 Cloudy 78 25.6 65 18.3 64 64 N 7 11 29.93 1013 10 16 0.00 0.00
3:53 pm 15:53 Cloudy 78 25.6 66 18.9 67 67 NW 5 7 29.92 1013 10 16 0.00 0.00
4:53 pm 16:53 Cloudy 79 26.1 66 18.9 65 65 NNW 6 9 29.92 1013 10 16 0.00 0.00
5:53 pm 17:53 Cloudy 81 27.2 66 18.9 61 61 NNW 7 11 29.91 1013 10 16 0.00 0.00
6:53 pm 18:53 Mostly Cloudy 80 26.7 65 18.3 60 60 N 6 9 29.92 1013 10 16 0.00 0.00
7:53 pm 19:53 Cloudy 79 26.1 66 18.9 65 65 N 3 6 29.93 1013 10 16 0.00 0.00
8:53 pm 20:53 Mostly Cloudy 77 25 66 18.9 69 69 Calm 29.92 1013 10 16 0.00 0.00
9:53 pm 21:53 Mostly Clear 74 23.3 68 20 82 82 Calm 29.93 1014 10 16 0.00 0.00
10:53 pm 22:53 Clear 71 21.7 67 19.4 87 87 NNW 3 6 29.96 1015 10 16 0.00 0.00
11:53 pm 23:53 Cloudy 71 21.7 67 19.4 87 87 Calm 29.98 1015 10 16 0.00 0.00

Powered by AerisWeather